Pocatello, ID

11:56 AM MDT on March 25, 2017 (GMT -0600)
Pocatello Regional

Weather History for KPIH - April, 2014

Change the Weather History Date:

Friday, April 4, 2014

  Actual Average Record
Temperature  
Mean Temperature 44 °F 43 °F  
Max Temperature 56 °F 55 °F 76 °F (2000)
Min Temperature 32 °F 31 °F 18 °F (1966)
Degree Days  
Heating Degree Days 21 22  
Month to date heating degree days 105 89  
Since 1 July heating degree days 5816 6201  
Cooling Degree Days 0 0  
Month to date cooling degree days 0 0  
Year to date cooling degree days 0 0  
Moisture  
Dew Point 29 °F    
Average Humidity 57    
Maximum Humidity 85    
Minimum Humidity 28    
Precipitation  
Precipitation 0.01 in 0.04 in 0.46 in (2005)
Month to date precipitation 0.38 0.14  
Year to date precipitation 4.38 3.36  
Snow  
Snow 0.00 in - - ()
Month to date snowfall 3.3  
Since 1 July snowfall 29.4  
Snow Depth 0.00 in    
Sea Level Pressure  
Sea Level Pressure 29.94 in    
Wind  
Wind Speed 8 mph (South)    
Max Wind Speed 24 mph    
Max Gust Speed 32 mph    
Visibility 10 miles    
Events Rain    
T = Trace of Precipitation, MM = Missing Value Source: NWS Daily Summary

Daily Weather History Graph

Daily Weather History Graph

Search for Another Location

Airport or City:

Trip Planner

Search our weather history database for the weather conditions in past years. The results will help you decide how hot, cold, wet, or windy it might be!

Date:

Astronomy

Apr. 04, 2014 Rise Set
Actual Time 7:07 AM MDT 8:00 PM MDT
Civil Twilight 6:38 AM MDT 8:29 PM MDT
Nautical Twilight 6:04 AM MDT 9:03 PM MDT
Astronomical Twilight 5:28 AM MDT 9:39 PM MDT
Moon 10:22 AM MDT (4/4) 12:27 AM MDT (4/4)
Length of Visible Light 13h 50m
Length of Day
12h 53m
Waxing Crescent, 26% of the Moon is Illuminated
Apr 4
Waxing Crescent
Apr 7
First Quarter
Apr 15
Full
Apr 22
Last Quarter
Apr 29
New

Hourly Weather History & Observations

Time (MDT) Temp. Windchill Dew Point Humidity Pressure Visibility Wind Dir Wind Speed Gust Speed Precip Events Conditions
12:53 AM 37.0 °F 32.4 °F 28.9 °F 73% 30.06 in 10.0 mi East 5.8 mph - N/A   Clear
1:53 AM 37.0 °F 34.5 °F 28.0 °F 70% 30.03 in 10.0 mi Variable 3.5 mph - N/A   Clear
2:53 AM 36.0 °F 32.1 °F 28.9 °F 76% 30.01 in 10.0 mi East 4.6 mph - N/A   Clear
3:53 AM 36.0 °F 33.3 °F 28.9 °F 76% 30.00 in 10.0 mi East 3.5 mph - N/A   Clear
4:53 AM 35.1 °F - 28.0 °F 76% 29.99 in 10.0 mi Calm Calm - N/A   Clear
5:53 AM 32.0 °F - 28.0 °F 85% 30.01 in 10.0 mi Calm Calm - N/A   Mostly Cloudy
6:53 AM 35.1 °F 31.0 °F 28.0 °F 76% 29.99 in 10.0 mi East 4.6 mph - N/A   Mostly Cloudy
7:53 AM 35.1 °F - 28.9 °F 78% 30.01 in 10.0 mi Calm Calm - N/A   Mostly Cloudy
8:53 AM 39.0 °F 35.7 °F 30.9 °F 73% 30.01 in 10.0 mi East 4.6 mph - N/A   Scattered Clouds
9:53 AM 45.0 °F 43.5 °F 30.0 °F 56% 29.97 in 10.0 mi NW 3.5 mph - N/A   Scattered Clouds
10:53 AM 48.9 °F - 28.0 °F 44% 29.96 in 10.0 mi SSW 12.7 mph - N/A   Partly Cloudy
11:53 AM 50.0 °F - 26.1 °F 39% 29.95 in 10.0 mi WSW 11.5 mph - N/A   Scattered Clouds
12:53 PM 52.0 °F - 26.1 °F 37% 29.92 in 10.0 mi West 8.1 mph - N/A   Mostly Cloudy
1:53 PM 48.9 °F - 27.0 °F 43% 29.91 in 10.0 mi West 6.9 mph - 0.00 in Rain Light Rain
2:53 PM 52.0 °F - 24.1 °F 34% 29.89 in 10.0 mi SW 11.5 mph - 0.01 in   Mostly Cloudy
3:53 PM 53.1 °F - 21.0 °F 29% 29.87 in 10.0 mi West 16.1 mph 23.0 mph N/A   Mostly Cloudy
4:16 PM 50.0 °F - 30.9 °F 48% 29.89 in 10.0 mi South 19.6 mph - N/A   Mostly Cloudy
4:53 PM 50.0 °F - 28.9 °F 44% 29.87 in 10.0 mi South 13.8 mph 20.7 mph N/A   Mostly Cloudy
5:53 PM 48.9 °F - 32.0 °F 52% 29.88 in 10.0 mi South 17.3 mph - N/A   Mostly Cloudy
6:53 PM 46.0 °F 41.4 °F 34.0 °F 63% 29.88 in 10.0 mi South 9.2 mph - 0.00 in Rain Light Rain
7:53 PM 44.1 °F 38.6 °F 30.9 °F 60% 29.89 in 10.0 mi South 10.4 mph - 0.00 in   Scattered Clouds
8:53 PM 39.9 °F 35.1 °F 30.0 °F 68% 29.89 in 10.0 mi South 6.9 mph - N/A   Clear
9:53 PM 41.0 °F 34.3 °F 30.0 °F 65% 29.89 in 10.0 mi South 11.5 mph - N/A   Clear
10:53 PM 41.0 °F 33.1 °F 32.0 °F 70% 29.88 in 10.0 mi South 15.0 mph - N/A   Clear
11:53 PM 39.0 °F 33.4 °F 30.0 °F 70% 29.88 in 10.0 mi SSW 8.1 mph - N/A   Clear